Location: Allie Creek
(37.5926°N, 89.8526°W)
Time: 12:01:01
(UTC+00:00)

ATLAS 3B R/B - Pass Details

Date: 26 September 2023
Orbit: 954 x 1241 km, 63.8° (Epoch: 01 December)

Event Time Altitude Azimuth Distance (km) Brightness Sun altitude
Rises 10:58:35 0° 324° (NW) 4,154 5.5 -11.1°
Reaches altitude 10° 11:01:22 10° 322° (NW) 3,201 4.9 -10.5°
Maximum altitude 11:09:01 63° 244° (WSW) 1,364 3.0 -9.0°
Drops below altitude 10° 11:16:34 10° 165° (SSE) 3,160 5.3 -7.5°
Sets 11:19:19 0° 162° (SSE) 4,097 5.9 -7.0°
